Location: New Mesquite
(33.1168°N, 96.4336°W)
Time: 23:14:57
(UTC+00:00)

Meteor 1-27 Rocket - Pass Details

Date: 09 July 2022
Orbit: 828 x 911 km, 81.3° (Epoch: 07 August)

Event Time Altitude Azimuth Distance (km) Brightness Sun altitude
Rises 06:58:38 0° 14° (NNE) 3,398 7.9 -34.1°
Reaches altitude 10° 07:02:24 10° 40° (NE) 2,447 6.7 -34.0°
Maximum altitude 07:05:09 14° 70° (ENE) 2,177 6.1 -33.9°
Enters shadow 07:06:18 13° 84° (E) 2,223 6.0 -33.9°
